Regional Weather Roundup
Issued by NWS Jackson, KY

Home | Current Version | Previous Version | Graphics & Text | Print | Product List | Glossary On
Versions: 1 2 3 4 5 6 7 8 9 10 11 12 13 14 15 16 17 18 19 20 21 22 23 24 25 26 27 28 29 30 31 32 33 34 35 36 37 38 39 40 41 42 43 44 45 46 47 48 49 50
000
ASUS43 KJKL 292205
RWRJKL

EAST KENTUCKY HOURLY WEATHER ROUNDUP
NATIONAL WEATHER SERVICE JACKSON KY
600 PM EDT FRI AUG 29 2014

NOTE: "FAIR" INDICATES FEW OR NO CLOUDS BELOW 12,000 FEET WITH
NO SIGNIFICANT WEATHER AND/OR OBSTRUCTIONS TO VISIBILITY.

* THESE REPORTS ARE NOT UNDER NWS QUALITY CONTROL AND MAY NOT
  REPORT WEATHER SUCH AS PRECIPITATION AND FOG.

KYZ079-080-083-085-087-088-110-112-115-119-120-292300
...EASTERN KENTUCKY...

CITY           SKY/WX    TMP DP  RH WIND       PRES   REMARKS
JACKSON        MOSUNNY   86  70  58 SE3       30.06R HX  90
LONDON         SUNNY     89  66  46 SW6       30.05S HX  91
SOMERSET*      SUNNY     88  61  40 W7        30.04R
MONTICELLO*    SUNNY     90  68  48 SW7       30.04F HX  94
WILLIAMSBURG*  SUNNY     90  68  48 CALM      30.04S HX  93
MIDDLESBORO*   SUNNY     90  67  47 SW3       30.05S HX  93
HARLAN APT*    CLEAR     88  63  42 MISG      30.07R
BLACK MTN*       N/A     75  66  73 S6          N/A
PIKEVILLE APT* SUNNY     81  72  74 NE3       30.07S
BIG SANDY*     CLEAR     87  70  57 CALM      30.06S HX  91
MOREHEAD APT*  CLEAR     77  68  73 S14G21    30.07R
$$

KYZ035-036-041-042-044-050-067-078-099-292300
...CENTRAL KENTUCKY...

CITY           SKY/WX    TMP DP  RH WIND       PRES   REMARKS
MT STERLING*   PTSUNNY   81  68  65 SE8       30.05F
FLEMING/MASON* PTSUNNY   83  69  62 E7        30.03S
DANVILLE*      SUNNY     88  64  45 SW6       30.04R
RICHMOND*      MOSUNNY   88  64  45 SW5       30.03R
LEXINGTON      SUNNY     90  65  43 SW7       30.02R HX  92
FRANKFORT      SUNNY     89  65  44 S9        30.00R HX  91
$$

KYZ091>093-OHZ055-061-077-WVZ005-015-034-035-042-292300
...SOUTHERN OHIO/WEST VIRGINIA...

CITY           SKY/WX    TMP DP  RH WIND       PRES   REMARKS
COLUMBUS       MOSUNNY   86  60  41 E8        30.04F
DAYTON         MOSUNNY   85  64  49 SE9       30.04S
WILMINGTON     SUNNY     83  64  52 SE6       30.04S
HUNTINGTON     SUNNY     86  67  52 E3        30.03S
CHARLESTON     MOSUNNY   87  68  52 E5        30.05S HX  90
PINEVILLE*     LGT RAIN  83  74  73 MISG      30.15R HX  90
BECKLEY        MOSUNNY   79  66  64 SE7       30.15S
BLUEFIELD      CLOUDY    78  66  66 VRB3      30.19R
$$

VAZ002-007-008-TNZ017-027-036-066-071-292300
...SOUTHWEST VIRGINIA/EAST TENNESSEE...

CITY           SKY/WX    TMP DP  RH WIND       PRES   REMARKS
WISE*          PTSUNNY   86  64  48 S3        30.16R
JONESVILLE*      N/A     90  66  45 SW6       30.08S HX  92
ABINGDON*      PTSUNNY   82  69  63 E10G18    30.12S
BRISTOL        MOSUNNY   89  67  47 NE3       30.07S HX  92
KNOXVILLE      MOSUNNY   90  64  42 CALM      30.02F HX  91
OAK RIDGE      MOSUNNY   91  61  36 VRB5      30.05S HX  91
CROSSVILLE     MOSUNNY   85  56  37 VRB7      30.09F
NASHVILLE      PTSUNNY   91  59  33 S12       29.99F HX  90
$$

...KEY TO REMARKS...
VSB - VISIBILITY IN MILES
WCI - WIND CHILL INDEX
HX  - HEAT INDEX

$$



USA.gov is the U.S. government's official web portal to all federal, state and local government web resources and services.